Weather in Krulevshina

Belarus     55°01′27″N   27°47′03″E
temp.,
°C
wind,
m/s
gust,
m/s
humid.,
%
clouds,
%
prec.,
mm/h
press.,
hPa
HPBL,
m
23 january, sat
sat2300:00+1s61398100 0.0 1000375
03:00+2ssw51399100 0.0 1000373
06:00+1ssw4899100 0.0 1002180
09:00+1ssw4898100 0.0 1003212
12:00+1s47100100 0.0 1005166
15:00+2s36100100 0.0 1005141
18:00+2sse48100100 0.0 1005163
21:00+2sse59100100 0.0 1004211
24 january, sun
sun2400:00+1sse61298100 0.6 1003335
03:00+1sse6129398 0.6 1003322
06:00+1sse61293100 0.0 1002350
09:000sse61393100 0.0 1002365
12:00+1sse71298100 0.0 1002470
15:00+2se49100100 0.1 999216
18:00+2sse41098100 0.1 999285
21:00+2sse51299100 2.0 997318
25 january, mon
mon2500:00+2s41099100 2.1 998241
03:00+2se4899100 2.8 993194
06:00+1s5998100 0.0 1000326
09:00+1sw61198100 1.7 998419
12:00+1sw5999100 0.1 1002494
15:00+1e2399100 0.0 100081
18:00+2ese51098100 0.3 999326
21:00+2ese51197100 0.8 998387
26 january, tue
tue2600:00+2e71395100 0.1 996395
03:00+2e71395100 1.1 994388
06:00+2se2399100 3.4 99270
09:00+3e61396100 2.9 990453
12:00+3ese61395100 0.9 991461
15:00+1sse71087100 1.3 991639
18:000se61187100 0.0 993766
21:000se6119099 0.2 994749
27 january, wed
wed2700:00−1ese6118894 0.1 994700
03:00−1ese5118893 0.1 993697
06:00−3sw489488 0.0 1007295
09:00−1w579587 0.0 995336
12:00−1ene4692100 0.3 994413
15:00−2ssw348882 0.0 1008442
18:00−1wnw369688 0.3 995279
21:00−2w71293100 0.4 1001643